User: anonymous
Location: Nirvana
(45.0297°N, 77.2628°W)
Time: 03:41:53
(UTC-04:00)
Language:

H-2A R/B - Orbit

View from above orbital plane
View from above orbital plane
View from above satellite
View from above satellite

Ground track
Ground track

The orbit data is extracted from the following two-line orbital elements,

1 27601U 02056E   14112.82433453  .00000356  00000-0  14595-3 0   688
2 27601 098.4829 196.7596 0073778 102.9147 035.1445 14.31349098593075
Epoch (UTC): 22 April 2014 19:47:02
Eccentricity: 0.0073778
inclination: 98.4829°
perigee height: 734 km
apogee height: 840 km
right ascension of ascending node: 196.7596°
argument of perigee: 102.9147°
revolutions per day: 14.31349098
mean anomaly at epoch: 35.1445°
orbit number at epoch: 59307

The dashed part of the orbit path shows where the satellite is in the earth's shadow,  

DLR